Location: Recife
(8.0585°S, 34.8848°W)
Time: 13:01:14
(UTC-03:00)

S-56A Canister/Altair - All Passes

Search period start: 14 April 2026 00:00
Search period end: 24 April 2026 00:00
Orbit: 632 x 2485 km, 38.9° (Epoch: 14 April)

Date Brightness Start Highest point End Pass type
(mag) Time Alt. Az. Time Alt. Az. Time Alt. Az.
14 Apr - 00:56:27 10° SW 01:02:38 88° NW 01:12:09 10° NE visible
14 Apr - 03:02:06 10° W 03:08:10 21° NNW 03:16:02 10° NNE visible
14 Apr - 11:44:44 10° NNW 11:53:52 23° NE 12:01:01 10° E daylight
14 Apr - 13:48:44 10° NW 13:59:56 81° NE 14:07:09 10° SE daylight
14 Apr - 15:58:11 10° W 16:03:55 20° SW 16:08:24 10° S daylight
15 Apr - 00:21:54 10° SW 00:27:38 75° SE 00:36:19 10° NE visible
15 Apr - 02:26:43 10° W 02:32:42 24° NNW 02:40:43 10° NNE visible
15 Apr - 11:09:28 10° N 11:18:08 20° NNE 11:25:14 10° ENE daylight
15 Apr - 13:12:49 10° NW 13:24:39 69° NE 13:32:24 10° ESE daylight
15 Apr - 15:21:28 10° W 15:28:55 27° SW 15:34:23 10° SSE daylight
15 Apr - 23:47:25 10° SW 23:52:45 58° SE 00:00:28 10° ENE night (unlit)
16 Apr - 01:51:31 10° W 01:57:20 28° NW 02:05:22 10° NNE visible
16 Apr - 10:34:21 10° N 10:42:18 17° NNE 10:49:06 10° ENE daylight
16 Apr - 12:36:56 10° NW 12:49:16 59° NE 12:57:32 10° ESE daylight
16 Apr - 14:44:53 10° WNW 14:53:52 36° SW 15:00:10 10° SSE daylight
16 Apr - 23:13:02 10° SSW 23:17:54 43° SE 23:24:37 10° ENE night (unlit)
17 Apr - 01:16:27 10° W 01:22:05 32° NW 01:29:59 10° NNE visible
17 Apr - 09:59:31 10° N 10:06:23 15° NNE 10:12:31 10° ENE daylight
17 Apr - 12:01:07 10° NNW 12:13:45 51° NE 12:22:32 10° ESE daylight
17 Apr - 14:08:23 10° WNW 14:18:47 45° SW 14:25:48 10° SSE daylight
17 Apr - 22:38:44 10° SSW 22:43:05 31° SE 22:48:43 10° ENE night (unlit)
18 Apr - 00:41:32 10° WSW 00:46:55 38° NW 00:54:36 10° NNE visible
18 Apr - 09:25:11 10° N 09:30:22 13° NNE 09:35:13 10° NE daylight
18 Apr - 11:25:22 10° NNW 11:38:09 45° NE 11:47:23 10° ESE daylight
18 Apr - 13:31:59 10° WNW 13:43:35 56° SW 13:51:19 10° SE daylight
18 Apr - 15:46:33 10° SW 15:48:10 11° SW 15:49:41 10° SSW daylight
18 Apr - 22:04:34 10° SSW 22:08:17 22° SE 22:12:45 10° E night (unlit)
19 Apr - 00:06:41 10° WSW 00:11:51 46° NW 00:19:15 10° NNE night (unlit)
19 Apr - 08:52:38 10° NNE 08:54:16 10° NNE 08:55:52 10° NE daylight
19 Apr - 10:49:43 10° NNW 11:02:26 39° NE 11:12:04 10° ESE daylight
19 Apr - 12:55:40 10° WNW 13:08:19 68° SW 13:16:43 10° SE daylight
19 Apr - 15:08:00 10° WSW 15:12:57 15° SW 15:17:04 10° S daylight
19 Apr - 21:30:35 10° S 21:33:27 16° SE 21:36:38 10° ESE night (unlit)
19 Apr - 23:31:55 10° WSW 23:36:53 57° NW 23:43:53 10° NE night (unlit)
20 Apr - 01:41:31 10° NW 01:42:15 10° NNW 01:43:01 10° NNW visible
20 Apr - 10:14:11 10° NNW 10:26:39 34° NE 10:36:33 10° E daylight
20 Apr - 12:19:26 10° NW 12:32:54 80° SW 12:42:01 10° SE daylight
20 Apr - 14:30:32 10° W 14:37:43 20° SW 14:43:18 10° S daylight
20 Apr - 20:57:10 10° SSE 20:58:33 11° SE 20:59:59 10° SE night (unlit)
20 Apr - 22:57:14 10° SW 23:02:01 74° NW 23:08:32 10° NE night (unlit)
21 Apr - 01:04:35 10° NW 01:06:55 12° NNW 01:09:31 10° N visible
21 Apr - 09:38:46 10° NNW 09:50:46 30° NE 10:00:48 10° E daylight
21 Apr - 11:43:18 10° NW 11:57:24 88° NE 12:07:11 10° SE daylight
21 Apr - 13:53:24 10° W 14:02:27 26° SW 14:09:11 10° SSE daylight
21 Apr - 22:22:36 10° SW 22:27:13 83° SE 22:33:12 10° NE night (unlit)
22 Apr - 00:28:42 10° WNW 00:31:40 14° NNW 00:35:08 10° N night (unlit)
22 Apr - 09:03:32 10° NNW 09:14:51 26° NE 09:24:45 10° E daylight
22 Apr - 11:07:17 10° NW 11:21:46 77° NE 11:32:13 10° SE daylight
22 Apr - 13:16:27 10° W 13:27:07 33° SW 13:34:52 10° SSE daylight
22 Apr - 21:48:02 10° SW 21:52:27 60° SE 21:57:51 10° ENE night (unlit)
22 Apr - 23:53:10 10° WNW 23:56:31 16° NNW 00:00:32 10° N night (unlit)
23 Apr - 08:28:30 10° N 08:38:53 22° NE 08:48:22 10° E daylight
23 Apr - 10:31:23 10° NW 10:46:03 68° NE 10:57:07 10° ESE daylight
23 Apr - 12:39:40 10° WNW 12:51:44 41° SW 13:00:23 10° SSE daylight
23 Apr - 21:13:30 10° SSW 21:17:43 42° SE 21:22:31 10° ENE night (unlit)
23 Apr - 23:17:51 10° W 23:21:27 20° NW 23:25:49 10° N night (unlit)
